Point Salines, Grenada

8:55 PM AST on August 31, 2015 (GMT -0400)
Point Salines International | | Change Station
CLOSE
Current Station
Airport
Location: Point Salines,
Elevation: 23 ft
Nearby Weather Stations

Elev 23 ft 12.00 °N, 61.79 °W | Updated 55 minutes ago

Partly Cloudy
Partly Cloudy
81 °F
Feels Like 88 °F
N
9
Wind Variable Wind from ENE

Today
High -- | Low -- °F
--% Chance of Precip.
Yesterday
High -- | Low -- °F
Precip. -- in
5:56 AM 6:18 PM
Waning Gibbous, 92% visible
Pressure 29.95 in
Visibility 6.2 miles
Clouds Few 1800 ft
Heat Index 88 °F
Dew Point 79 °F
Humidity 94%
Rainfall 0.00 in
Snow Depth Not available.
UV 0 out of 12
Pollen Not available.
Air Quality Not available.
Flu Activity Not available.
METAR TGPY 010000Z 07008KT 9999 FEW018 27/26 Q1014 NOSIG
Pressure 29.95 in
Visibility 6.2 miles
Clouds Few 1800 ft
Heat Index 88 °F
Dew Point 79 °F
Humidity 94%
Rainfall 0.00 in
Snow Depth Not available.
UV 0 out of 12
Pollen Not available.
Air Quality Not available.
Flu Activity Not available.
METAR TGPY 010000Z 07008KT 9999 FEW018 27/26 Q1014 NOSIG

10-Day Weather Forecast

×

Almanac

Astronomy

Aug. 31, 2015 Rise Set
Actual Time
Civil Twilight
Nautical Twilight
Astronomical Twilight
Moon
Length of Visible Light
Length of Day
Tomorrow will be .
, % of the Moon is Illuminated

Today's Extremes

Country Highs Country Lows

Community

WunderPhotos

Upload Photos

1,851,411 photos uploaded!

WunderBlogs® & News

Nearby

Air Quality

  Air Quality AQ Index Pollutant
Not available.

Snow Depth

Station Depth Elevation

Earthquake Activity

City Distance Mag. Time & Date
Minimum magnitude displayed is 2.5.

Coastal Water Temperatures

Place Temperature

Stations

Nearby Weather Stations

Station Location Temp. Windchill Dew Point Humidity Wind Precip. Elev Updated Type